owner,sensor,date,latitude,longitude,air_temperature,qcFlag 
LOOP,urn:ioos:station:wmo:lopl1:1,2019-08-01T00:44:00Z,28.8850,-90.0250,28.0,11111222 
LOOP,urn:ioos:station:wmo:lopl1:1,2019-08-01T01:44:00Z,28.8850,-90.0250,27.8,11111222 
LOOP,urn:ioos:station:wmo:lopl1:1,2019-08-01T02:44:00Z,28.8850,-90.0250,28.0,11111222 
LOOP,urn:ioos:station:wmo:lopl1:1,2019-08-01T03:44:00Z,28.8850,-90.0250,28.0,11111222 
LOOP,urn:ioos:station:wmo:lopl1:1,2019-08-01T04:44:00Z,28.8850,-90.0250,28.0,11111222 
LOOP,urn:ioos:station:wmo:lopl1:1,2019-08-01T05:44:00Z,28.8850,-90.0250,28.0,11111222 
LOOP,urn:ioos:station:wmo:lopl1:1,2019-08-01T06:44:00Z,28.8850,-90.0250,28.0,11111222 
LOOP,urn:ioos:station:wmo:lopl1:1,2019-08-01T07:44:00Z,28.8850,-90.0250,27.8,11111222 
LOOP,urn:ioos:station:wmo:lopl1:1,2019-08-01T08:44:00Z,28.8850,-90.0250,27.6,11111222 
LOOP,urn:ioos:station:wmo:lopl1:1,2019-08-01T09:44:00Z,28.8850,-90.0250,27.8,11111222 
LOOP,urn:ioos:station:wmo:lopl1:1,2019-08-01T10:44:00Z,28.8850,-90.0250,27.3,11111222 
LOOP,urn:ioos:station:wmo:lopl1:1,2019-08-01T11:49:00Z,28.8850,-90.0250,27.7,11111222 
LOOP,urn:ioos:station:wmo:lopl1:1,2019-08-01T13:04:00Z,28.8850,-90.0250,28.4,11111222 
LOOP,urn:ioos:station:wmo:lopl1:1,2019-08-01T14:04:00Z,28.8850,-90.0250,28.0,11111222 
LOOP,urn:ioos:station:wmo:lopl1:1,2019-08-01T15:04:00Z,28.8850,-90.0250,28.0,11111222 
LOOP,urn:ioos:station:wmo:lopl1:1,2019-08-01T16:04:00Z,28.8850,-90.0250,27.9,11111222 
LOOP,urn:ioos:station:wmo:lopl1:1,2019-08-01T17:04:00Z,28.8850,-90.0250,28.0,11111222 
LOOP,urn:ioos:station:wmo:lopl1:1,2019-08-01T18:04:00Z,28.8850,-90.0250,28.1,11111222 
LOOP,urn:ioos:station:wmo:lopl1:1,2019-08-01T19:04:00Z,28.8850,-90.0250,27.6,11111222 
LOOP,urn:ioos:station:wmo:lopl1:1,2019-08-01T20:04:00Z,28.8850,-90.0250,28.2,11111222 
LOOP,urn:ioos:station:wmo:lopl1:1,2019-08-01T21:04:00Z,28.8850,-90.0250,28.4,11111222 
LOOP,urn:ioos:station:wmo:lopl1:1,2019-08-01T22:09:00Z,28.8850,-90.0250,28.4,11111222 
LOOP,urn:ioos:station:wmo:lopl1:1,2019-08-01T23:09:00Z,28.8850,-90.0250,28.6,11111222 
LOOP,urn:ioos:station:wmo:lopl1:1,2019-08-02T00:09:00Z,28.8850,-90.0250,28.9,11111222 
LOOP,urn:ioos:station:wmo:lopl1:1,2019-08-02T01:09:00Z,28.8850,-90.0250,28.5,11111222 
LOOP,urn:ioos:station:wmo:lopl1:1,2019-08-02T02:09:00Z,28.8850,-90.0250,28.4,11111222 
LOOP,urn:ioos:station:wmo:lopl1:1,2019-08-02T03:09:00Z,28.8850,-90.0250,28.4,11111222 
LOOP,urn:ioos:station:wmo:lopl1:1,2019-08-02T04:09:00Z,28.8850,-90.0250,28.5,11111222 
LOOP,urn:ioos:station:wmo:lopl1:1,2019-08-02T05:09:00Z,28.8850,-90.0250,28.4,11111222 
LOOP,urn:ioos:station:wmo:lopl1:1,2019-08-02T06:09:00Z,28.8850,-90.0250,28.3,11111222 
LOOP,urn:ioos:station:wmo:lopl1:1,2019-08-02T07:14:00Z,28.8850,-90.0250,28.3,11111222 
LOOP,urn:ioos:station:wmo:lopl1:1,2019-08-02T08:14:00Z,28.8850,-90.0250,28.4,11111222 
LOOP,urn:ioos:station:wmo:lopl1:1,2019-08-02T09:14:00Z,28.8850,-90.0250,28.5,11111222 
LOOP,urn:ioos:station:wmo:lopl1:1,2019-08-02T10:14:00Z,28.8850,-90.0250,27.6,11111222 
LOOP,urn:ioos:station:wmo:lopl1:1,2019-08-02T11:14:00Z,28.8850,-90.0250,28.3,11111222 
LOOP,urn:ioos:station:wmo:lopl1:1,2019-08-02T12:14:00Z,28.8850,-90.0250,29.2,11111222 
LOOP,urn:ioos:station:wmo:lopl1:1,2019-08-02T13:14:00Z,28.8850,-90.0250,28.0,11111222 
LOOP,urn:ioos:station:wmo:lopl1:1,2019-08-02T14:14:00Z,28.8850,-90.0250,29.3,11111222 
LOOP,urn:ioos:station:wmo:lopl1:1,2019-08-02T15:14:00Z,28.8850,-90.0250,29.3,11111222 
LOOP,urn:ioos:station:wmo:lopl1:1,2019-08-02T16:14:00Z,28.8850,-90.0250,29.2,11111222 
LOOP,urn:ioos:station:wmo:lopl1:1,2019-08-02T17:14:00Z,28.8850,-90.0250,30.0,11111222 
LOOP,urn:ioos:station:wmo:lopl1:1,2019-08-02T18:19:00Z,28.8850,-90.0250,29.0,11111222 
LOOP,urn:ioos:station:wmo:lopl1:1,2019-08-02T19:19:00Z,28.8850,-90.0250,29.4,11111222 
LOOP,urn:ioos:station:wmo:lopl1:1,2019-08-02T20:19:00Z,28.8850,-90.0250,30.0,11111222 
LOOP,urn:ioos:station:wmo:lopl1:1,2019-08-02T21:19:00Z,28.8850,-90.0250,29.4,11111222 
LOOP,urn:ioos:station:wmo:lopl1:1,2019-08-02T22:19:00Z,28.8850,-90.0250,28.8,11111222 
LOOP,urn:ioos:station:wmo:lopl1:1,2019-08-02T23:19:00Z,28.8850,-90.0250,29.4,11111222 
LOOP,urn:ioos:station:wmo:lopl1:1,2019-08-03T00:19:00Z,28.8850,-90.0250,29.3,11111222 
LOOP,urn:ioos:station:wmo:lopl1:1,2019-08-03T01:19:00Z,28.8850,-90.0250,28.7,11111222 
LOOP,urn:ioos:station:wmo:lopl1:1,2019-08-03T02:19:00Z,28.8850,-90.0250,28.7,11111222 
LOOP,urn:ioos:station:wmo:lopl1:1,2019-08-03T03:19:00Z,28.8850,-90.0250,28.6,11111222 
LOOP,urn:ioos:station:wmo:lopl1:1,2019-08-03T04:19:00Z,28.8850,-90.0250,28.6,11111222 
LOOP,urn:ioos:station:wmo:lopl1:1,2019-08-03T05:19:00Z,28.8850,-90.0250,28.5,11111222 
LOOP,urn:ioos:station:wmo:lopl1:1,2019-08-03T06:24:00Z,28.8850,-90.0250,28.3,11111222 
LOOP,urn:ioos:station:wmo:lopl1:1,2019-08-03T07:24:00Z,28.8850,-90.0250,28.2,11111222 
LOOP,urn:ioos:station:wmo:lopl1:1,2019-08-03T08:24:00Z,28.8850,-90.0250,28.3,11111222 
LOOP,urn:ioos:station:wmo:lopl1:1,2019-08-03T09:24:00Z,28.8850,-90.0250,28.1,11111222 
LOOP,urn:ioos:station:wmo:lopl1:1,2019-08-03T10:24:00Z,28.8850,-90.0250,28.0,11111222 
LOOP,urn:ioos:station:wmo:lopl1:1,2019-08-03T11:24:00Z,28.8850,-90.0250,27.9,11111222 
LOOP,urn:ioos:station:wmo:lopl1:1,2019-08-03T12:24:00Z,28.8850,-90.0250,28.3,11111222 
LOOP,urn:ioos:station:wmo:lopl1:1,2019-08-03T13:24:00Z,28.8850,-90.0250,28.4,11111222 
LOOP,urn:ioos:station:wmo:lopl1:1,2019-08-03T14:29:00Z,28.8850,-90.0250,28.6,11111222 
LOOP,urn:ioos:station:wmo:lopl1:1,2019-08-03T15:29:00Z,28.8850,-90.0250,29.1,11111222 
LOOP,urn:ioos:station:wmo:lopl1:1,2019-08-03T16:29:00Z,28.8850,-90.0250,29.1,11111222 
LOOP,urn:ioos:station:wmo:lopl1:1,2019-08-03T17:29:00Z,28.8850,-90.0250,28.7,11111222 
LOOP,urn:ioos:station:wmo:lopl1:1,2019-08-03T18:29:00Z,28.8850,-90.0250,29.6,11111222 
LOOP,urn:ioos:station:wmo:lopl1:1,2019-08-03T19:29:00Z,28.8850,-90.0250,29.6,11111222 
LOOP,urn:ioos:station:wmo:lopl1:1,2019-08-03T20:29:00Z,28.8850,-90.0250,27.8,11111222 
LOOP,urn:ioos:station:wmo:lopl1:1,2019-08-03T21:29:00Z,28.8850,-90.0250,27.4,11111222 
LOOP,urn:ioos:station:wmo:lopl1:1,2019-08-03T22:29:00Z,28.8850,-90.0250,28.1,11111222 
LOOP,urn:ioos:station:wmo:lopl1:1,2019-08-03T23:29:00Z,28.8850,-90.0250,28.5,11111222 
LOOP,urn:ioos:station:wmo:lopl1:1,2019-08-04T00:29:00Z,28.8850,-90.0250,28.4,11111222 
LOOP,urn:ioos:station:wmo:lopl1:1,2019-08-04T01:29:00Z,28.8850,-90.0250,28.1,11111222 
LOOP,urn:ioos:station:wmo:lopl1:1,2019-08-04T02:34:00Z,28.8850,-90.0250,28.4,11111222 
LOOP,urn:ioos:station:wmo:lopl1:1,2019-08-04T03:34:00Z,28.8850,-90.0250,28.3,11111222 
LOOP,urn:ioos:station:wmo:lopl1:1,2019-08-04T04:34:00Z,28.8850,-90.0250,28.4,11111222 
LOOP,urn:ioos:station:wmo:lopl1:1,2019-08-04T05:34:00Z,28.8850,-90.0250,28.3,11111222 
LOOP,urn:ioos:station:wmo:lopl1:1,2019-08-04T06:34:00Z,28.8850,-90.0250,28.3,11111222 
LOOP,urn:ioos:station:wmo:lopl1:1,2019-08-04T07:34:00Z,28.8850,-90.0250,28.1,11111222 
LOOP,urn:ioos:station:wmo:lopl1:1,2019-08-04T08:34:00Z,28.8850,-90.0250,28.6,11111222 
LOOP,urn:ioos:station:wmo:lopl1:1,2019-08-04T09:34:00Z,28.8850,-90.0250,28.3,11111222 
LOOP,urn:ioos:station:wmo:lopl1:1,2019-08-04T10:34:00Z,28.8850,-90.0250,28.2,11111222 
LOOP,urn:ioos:station:wmo:lopl1:1,2019-08-04T11:54:00Z,28.8850,-90.0250,28.6,11111222 
LOOP,urn:ioos:station:wmo:lopl1:1,2019-08-04T12:54:00Z,28.8850,-90.0250,28.5,11111222 
LOOP,urn:ioos:station:wmo:lopl1:1,2019-08-04T13:54:00Z,28.8850,-90.0250,28.2,11111222 
LOOP,urn:ioos:station:wmo:lopl1:1,2019-08-04T15:09:00Z,28.8850,-90.0250,28.4,11111222 
LOOP,urn:ioos:station:wmo:lopl1:1,2019-08-04T16:09:00Z,28.8850,-90.0250,28.3,11111222 
LOOP,urn:ioos:station:wmo:lopl1:1,2019-08-04T17:09:00Z,28.8850,-90.0250,28.0,11111222 
LOOP,urn:ioos:station:wmo:lopl1:1,2019-08-04T18:09:00Z,28.8850,-90.0250,27.2,11111222 
LOOP,urn:ioos:station:wmo:lopl1:1,2019-08-04T19:09:00Z,28.8850,-90.0250,27.9,11111222 
LOOP,urn:ioos:station:wmo:lopl1:1,2019-08-04T20:09:00Z,28.8850,-90.0250,28.1,11111222 
LOOP,urn:ioos:station:wmo:lopl1:1,2019-08-04T21:09:00Z,28.8850,-90.0250,28.5,11111222 
LOOP,urn:ioos:station:wmo:lopl1:1,2019-08-04T22:09:00Z,28.8850,-90.0250,28.9,11111222 
LOOP,urn:ioos:station:wmo:lopl1:1,2019-08-04T23:09:00Z,28.8850,-90.0250,29.1,11111222 
LOOP,urn:ioos:station:wmo:lopl1:1,2019-08-05T00:14:00Z,28.8850,-90.0250,29.1,11111222 
LOOP,urn:ioos:station:wmo:lopl1:1,2019-08-05T01:14:00Z,28.8850,-90.0250,29.1,11111222 
LOOP,urn:ioos:station:wmo:lopl1:1,2019-08-05T02:14:00Z,28.8850,-90.0250,29.0,11111222 
LOOP,urn:ioos:station:wmo:lopl1:1,2019-08-05T03:14:00Z,28.8850,-90.0250,28.9,11111222 
LOOP,urn:ioos:station:wmo:lopl1:1,2019-08-05T04:14:00Z,28.8850,-90.0250,28.7,11111222 
LOOP,urn:ioos:station:wmo:lopl1:1,2019-08-05T05:14:00Z,28.8850,-90.0250,28.8,11111222 
LOOP,urn:ioos:station:wmo:lopl1:1,2019-08-05T06:14:00Z,28.8850,-90.0250,28.6,11111222 
LOOP,urn:ioos:station:wmo:lopl1:1,2019-08-05T07:14:00Z,28.8850,-90.0250,28.8,11111222 
LOOP,urn:ioos:station:wmo:lopl1:1,2019-08-05T08:14:00Z,28.8850,-90.0250,28.7,11111222 
LOOP,urn:ioos:station:wmo:lopl1:1,2019-08-05T09:14:00Z,28.8850,-90.0250,28.9,11111222 
LOOP,urn:ioos:station:wmo:lopl1:1,2019-08-05T10:14:00Z,28.8850,-90.0250,28.7,11111222 
LOOP,urn:ioos:station:wmo:lopl1:1,2019-08-05T11:15:00Z,28.8850,-90.0250,28.6,11111222 
LOOP,urn:ioos:station:wmo:lopl1:1,2019-08-05T12:20:00Z,28.8850,-90.0250,28.7,11111222 
LOOP,urn:ioos:station:wmo:lopl1:1,2019-08-05T13:20:00Z,28.8850,-90.0250,28.6,11111222 
LOOP,urn:ioos:station:wmo:lopl1:1,2019-08-05T14:20:00Z,28.8850,-90.0250,28.2,11111222 
LOOP,urn:ioos:station:wmo:lopl1:1,2019-08-05T15:20:00Z,28.8850,-90.0250,28.8,11111222 
LOOP,urn:ioos:station:wmo:lopl1:1,2019-08-05T16:20:00Z,28.8850,-90.0250,29.0,11111222 
LOOP,urn:ioos:station:wmo:lopl1:1,2019-08-05T17:20:00Z,28.8850,-90.0250,25.8,11111222 
LOOP,urn:ioos:station:wmo:lopl1:1,2019-08-05T18:20:00Z,28.8850,-90.0250,25.6,11111222 
LOOP,urn:ioos:station:wmo:lopl1:1,2019-08-05T19:20:00Z,28.8850,-90.0250,26.0,11111222 
LOOP,urn:ioos:station:wmo:lopl1:1,2019-08-05T20:20:00Z,28.8850,-90.0250,27.0,11111222 
LOOP,urn:ioos:station:wmo:lopl1:1,2019-08-05T21:20:00Z,28.8850,-90.0250,27.7,11111222 
LOOP,urn:ioos:station:wmo:lopl1:1,2019-08-05T22:20:00Z,28.8850,-90.0250,28.0,11111222 
LOOP,urn:ioos:station:wmo:lopl1:1,2019-08-05T23:25:00Z,28.8850,-90.0250,28.3,11111222 
LOOP,urn:ioos:station:wmo:lopl1:1,2019-08-06T00:25:00Z,28.8850,-90.0250,28.5,11111222 
LOOP,urn:ioos:station:wmo:lopl1:1,2019-08-06T01:25:00Z,28.8850,-90.0250,28.2,11111222 
LOOP,urn:ioos:station:wmo:lopl1:1,2019-08-06T02:40:00Z,28.8850,-90.0250,28.2,11111222 
LOOP,urn:ioos:station:wmo:lopl1:1,2019-08-06T03:40:00Z,28.8850,-90.0250,28.5,11111222 
LOOP,urn:ioos:station:wmo:lopl1:1,2019-08-06T04:55:00Z,28.8850,-90.0250,28.8,11111222 
LOOP,urn:ioos:station:wmo:lopl1:1,2019-08-06T05:55:00Z,28.8850,-90.0250,28.7,11111222 
LOOP,urn:ioos:station:wmo:lopl1:1,2019-08-06T06:55:00Z,28.8850,-90.0250,28.6,11111222 
LOOP,urn:ioos:station:wmo:lopl1:1,2019-08-06T07:55:00Z,28.8850,-90.0250,28.4,11111222 
LOOP,urn:ioos:station:wmo:lopl1:1,2019-08-06T08:55:00Z,28.8850,-90.0250,27.4,11111222 
LOOP,urn:ioos:station:wmo:lopl1:1,2019-08-06T10:00:00Z,28.8850,-90.0250,28.7,11111222 
LOOP,urn:ioos:station:wmo:lopl1:1,2019-08-06T11:00:00Z,28.8850,-90.0250,28.9,11111222 
LOOP,urn:ioos:station:wmo:lopl1:1,2019-08-06T12:00:00Z,28.8850,-90.0250,28.6,11111222 
LOOP,urn:ioos:station:wmo:lopl1:1,2019-08-06T13:15:00Z,28.8850,-90.0250,29.2,11111222 
LOOP,urn:ioos:station:wmo:lopl1:1,2019-08-06T14:15:00Z,28.8850,-90.0250,29.4,11111222 
LOOP,urn:ioos:station:wmo:lopl1:1,2019-08-06T15:15:00Z,28.8850,-90.0250,29.7,11111222 
LOOP,urn:ioos:station:wmo:lopl1:1,2019-08-06T16:15:00Z,28.8850,-90.0250,29.8,11111222 
LOOP,urn:ioos:station:wmo:lopl1:1,2019-08-06T17:15:00Z,28.8850,-90.0250,29.8,11111222 
LOOP,urn:ioos:station:wmo:lopl1:1,2019-08-06T18:15:00Z,28.8850,-90.0250,30.8,11111222 
LOOP,urn:ioos:station:wmo:lopl1:1,2019-08-06T19:20:00Z,28.8850,-90.0250,27.3,11111222 
LOOP,urn:ioos:station:wmo:lopl1:1,2019-08-06T20:20:00Z,28.8850,-90.0250,28.1,11111222 
LOOP,urn:ioos:station:wmo:lopl1:1,2019-08-06T21:20:00Z,28.8850,-90.0250,28.7,11111222 
LOOP,urn:ioos:station:wmo:lopl1:1,2019-08-06T22:20:00Z,28.8850,-90.0250,29.8,11111222 
LOOP,urn:ioos:station:wmo:lopl1:1,2019-08-06T23:20:00Z,28.8850,-90.0250,29.4,11111222 
LOOP,urn:ioos:station:wmo:lopl1:1,2019-08-07T00:20:00Z,28.8850,-90.0250,29.3,11111222 
LOOP,urn:ioos:station:wmo:lopl1:1,2019-08-07T01:20:00Z,28.8850,-90.0250,29.3,11111222 
LOOP,urn:ioos:station:wmo:lopl1:1,2019-08-07T02:20:00Z,28.8850,-90.0250,29.4,11111222 
LOOP,urn:ioos:station:wmo:lopl1:1,2019-08-07T03:20:00Z,28.8850,-90.0250,29.4,11111222 
LOOP,urn:ioos:station:wmo:lopl1:1,2019-08-07T04:20:00Z,28.8850,-90.0250,29.2,11111222 
LOOP,urn:ioos:station:wmo:lopl1:1,2019-08-07T05:20:00Z,28.8850,-90.0250,29.3,11111222 
LOOP,urn:ioos:station:wmo:lopl1:1,2019-08-07T06:25:00Z,28.8850,-90.0250,29.3,11111222 
LOOP,urn:ioos:station:wmo:lopl1:1,2019-08-07T07:25:00Z,28.8850,-90.0250,29.3,11111222 
LOOP,urn:ioos:station:wmo:lopl1:1,2019-08-07T08:25:00Z,28.8850,-90.0250,29.2,11111222 
LOOP,urn:ioos:station:wmo:lopl1:1,2019-08-07T09:25:00Z,28.8850,-90.0250,29.3,11111222 
LOOP,urn:ioos:station:wmo:lopl1:1,2019-08-07T10:25:00Z,28.8850,-90.0250,29.2,11111222 
LOOP,urn:ioos:station:wmo:lopl1:1,2019-08-07T11:25:00Z,28.8850,-90.0250,28.3,11111222 
LOOP,urn:ioos:station:wmo:lopl1:1,2019-08-07T12:25:00Z,28.8850,-90.0250,28.1,11111222 
LOOP,urn:ioos:station:wmo:lopl1:1,2019-08-07T13:25:00Z,28.8850,-90.0250,28.3,11111222 
LOOP,urn:ioos:station:wmo:lopl1:1,2019-08-07T14:25:00Z,28.8850,-90.0250,28.5,11111222 
LOOP,urn:ioos:station:wmo:lopl1:1,2019-08-07T15:25:00Z,28.8850,-90.0250,29.4,11111222 
LOOP,urn:ioos:station:wmo:lopl1:1,2019-08-07T16:25:00Z,28.8850,-90.0250,30.0,11111222 
LOOP,urn:ioos:station:wmo:lopl1:1,2019-08-07T17:25:00Z,28.8850,-90.0250,28.7,11111222 
LOOP,urn:ioos:station:wmo:lopl1:1,2019-08-07T18:30:00Z,28.8850,-90.0250,29.4,11111222 
LOOP,urn:ioos:station:wmo:lopl1:1,2019-08-07T19:30:00Z,28.8850,-90.0250,29.8,11111222 
LOOP,urn:ioos:station:wmo:lopl1:1,2019-08-07T20:30:00Z,28.8850,-90.0250,29.6,11111222 
LOOP,urn:ioos:station:wmo:lopl1:1,2019-08-07T21:30:00Z,28.8850,-90.0250,29.7,11111222 
LOOP,urn:ioos:station:wmo:lopl1:1,2019-08-07T22:30:00Z,28.8850,-90.0250,29.7,11111222 
LOOP,urn:ioos:station:wmo:lopl1:1,2019-08-07T23:45:00Z,28.8850,-90.0250,29.8,11111222 
LOOP,urn:ioos:station:wmo:lopl1:1,2019-08-08T00:45:00Z,28.8850,-90.0250,29.3,11111222 
LOOP,urn:ioos:station:wmo:lopl1:1,2019-08-08T01:45:00Z,28.8850,-90.0250,29.4,11111222 
LOOP,urn:ioos:station:wmo:lopl1:1,2019-08-08T02:45:00Z,28.8850,-90.0250,29.5,11111222 
LOOP,urn:ioos:station:wmo:lopl1:1,2019-08-08T03:50:00Z,28.8850,-90.0250,29.5,11111222 
LOOP,urn:ioos:station:wmo:lopl1:1,2019-08-08T04:50:00Z,28.8850,-90.0250,29.2,11111222 
LOOP,urn:ioos:station:wmo:lopl1:1,2019-08-08T05:50:00Z,28.8850,-90.0250,29.1,11111222 
LOOP,urn:ioos:station:wmo:lopl1:1,2019-08-08T07:05:00Z,28.8850,-90.0250,29.1,11111222 
LOOP,urn:ioos:station:wmo:lopl1:1,2019-08-08T08:05:00Z,28.8850,-90.0250,29.0,11111222 
LOOP,urn:ioos:station:wmo:lopl1:1,2019-08-08T09:05:00Z,28.8850,-90.0250,29.0,11111222 
LOOP,urn:ioos:station:wmo:lopl1:1,2019-08-08T10:05:00Z,28.8850,-90.0250,29.1,11111222 
LOOP,urn:ioos:station:wmo:lopl1:1,2019-08-08T11:05:00Z,28.8850,-90.0250,29.3,11111222 
LOOP,urn:ioos:station:wmo:lopl1:1,2019-08-08T12:05:00Z,28.8850,-90.0250,29.3,11111222 
LOOP,urn:ioos:station:wmo:lopl1:1,2019-08-08T13:05:00Z,28.8850,-90.0250,29.4,11111222 
LOOP,urn:ioos:station:wmo:lopl1:1,2019-08-08T14:05:00Z,28.8850,-90.0250,29.2,11111222 
LOOP,urn:ioos:station:wmo:lopl1:1,2019-08-08T15:10:00Z,28.8850,-90.0250,30.4,11111222 
LOOP,urn:ioos:station:wmo:lopl1:1,2019-08-08T16:10:00Z,28.8850,-90.0250,30.0,11111222 
LOOP,urn:ioos:station:wmo:lopl1:1,2019-08-08T17:10:00Z,28.8850,-90.0250,29.6,11111222 
LOOP,urn:ioos:station:wmo:lopl1:1,2019-08-08T18:10:00Z,28.8850,-90.0250,30.8,11111222 
LOOP,urn:ioos:station:wmo:lopl1:1,2019-08-08T19:10:00Z,28.8850,-90.0250,30.8,11111222 
LOOP,urn:ioos:station:wmo:lopl1:1,2019-08-08T20:10:00Z,28.8850,-90.0250,29.4,11111222 
LOOP,urn:ioos:station:wmo:lopl1:1,2019-08-08T21:10:00Z,28.8850,-90.0250,26.9,11111222 
LOOP,urn:ioos:station:wmo:lopl1:1,2019-08-08T22:10:00Z,28.8850,-90.0250,28.6,11111222 
LOOP,urn:ioos:station:wmo:lopl1:1,2019-08-08T23:10:00Z,28.8850,-90.0250,29.3,11111222 
LOOP,urn:ioos:station:wmo:lopl1:1,2019-08-09T00:10:00Z,28.8850,-90.0250,29.5,11111222 
LOOP,urn:ioos:station:wmo:lopl1:1,2019-08-09T01:10:00Z,28.8850,-90.0250,29.3,11111222 
LOOP,urn:ioos:station:wmo:lopl1:1,2019-08-09T02:15:00Z,28.8850,-90.0250,29.3,11111222 
LOOP,urn:ioos:station:wmo:lopl1:1,2019-08-09T03:15:00Z,28.8850,-90.0250,29.2,11111222 
LOOP,urn:ioos:station:wmo:lopl1:1,2019-08-09T04:15:00Z,28.8850,-90.0250,29.5,11111222 
LOOP,urn:ioos:station:wmo:lopl1:1,2019-08-09T05:15:00Z,28.8850,-90.0250,29.6,11111222 
LOOP,urn:ioos:station:wmo:lopl1:1,2019-08-09T06:15:00Z,28.8850,-90.0250,29.5,11111222 
LOOP,urn:ioos:station:wmo:lopl1:1,2019-08-09T07:30:00Z,28.8850,-90.0250,29.5,11111222 
LOOP,urn:ioos:station:wmo:lopl1:1,2019-08-09T08:45:00Z,28.8850,-90.0250,29.2,11111222 
LOOP,urn:ioos:station:wmo:lopl1:1,2019-08-09T09:45:00Z,28.8850,-90.0250,29.1,11111222 
LOOP,urn:ioos:station:wmo:lopl1:1,2019-08-09T10:45:00Z,28.8850,-90.0250,29.0,11111222 
LOOP,urn:ioos:station:wmo:lopl1:1,2019-08-09T11:45:00Z,28.8850,-90.0250,29.0,11111222 
LOOP,urn:ioos:station:wmo:lopl1:1,2019-08-09T12:50:00Z,28.8850,-90.0250,29.4,11111222 
LOOP,urn:ioos:station:wmo:lopl1:1,2019-08-09T13:50:00Z,28.8850,-90.0250,29.3,11111222 
LOOP,urn:ioos:station:wmo:lopl1:1,2019-08-09T14:50:00Z,28.8850,-90.0250,29.9,11111222 
LOOP,urn:ioos:station:wmo:lopl1:1,2019-08-09T15:50:00Z,28.8850,-90.0250,29.9,11111222 
LOOP,urn:ioos:station:wmo:lopl1:1,2019-08-09T16:50:00Z,28.8850,-90.0250,30.0,11111222 
LOOP,urn:ioos:station:wmo:lopl1:1,2019-08-09T17:50:00Z,28.8850,-90.0250,30.1,11111222 
LOOP,urn:ioos:station:wmo:lopl1:1,2019-08-09T18:50:00Z,28.8850,-90.0250,30.8,11111222 
LOOP,urn:ioos:station:wmo:lopl1:1,2019-08-09T19:50:00Z,28.8850,-90.0250,30.2,11111222 
LOOP,urn:ioos:station:wmo:lopl1:1,2019-08-09T20:50:00Z,28.8850,-90.0250,30.6,11111222 
LOOP,urn:ioos:station:wmo:lopl1:1,2019-08-09T21:50:00Z,28.8850,-90.0250,30.5,11111222 
LOOP,urn:ioos:station:wmo:lopl1:1,2019-08-09T22:50:00Z,28.8850,-90.0250,30.3,11111222 
LOOP,urn:ioos:station:wmo:lopl1:1,2019-08-09T23:50:00Z,28.8850,-90.0250,30.2,11111222 
LOOP,urn:ioos:station:wmo:lopl1:1,2019-08-10T00:50:00Z,28.8850,-90.0250,30.1,11111222 
LOOP,urn:ioos:station:wmo:lopl1:1,2019-08-10T02:10:00Z,28.8850,-90.0250,30.0,11111222 
LOOP,urn:ioos:station:wmo:lopl1:1,2019-08-10T03:10:00Z,28.8850,-90.0250,30.0,11111222 
LOOP,urn:ioos:station:wmo:lopl1:1,2019-08-10T04:10:00Z,28.8850,-90.0250,29.8,11111222 
LOOP,urn:ioos:station:wmo:lopl1:1,2019-08-10T05:10:00Z,28.8850,-90.0250,29.8,11111222 
LOOP,urn:ioos:station:wmo:lopl1:1,2019-08-10T06:10:00Z,28.8850,-90.0250,29.9,11111222 
LOOP,urn:ioos:station:wmo:lopl1:1,2019-08-10T07:10:00Z,28.8850,-90.0250,29.7,11111222 
LOOP,urn:ioos:station:wmo:lopl1:1,2019-08-10T08:10:00Z,28.8850,-90.0250,29.6,11111222 
LOOP,urn:ioos:station:wmo:lopl1:1,2019-08-10T09:10:00Z,28.8850,-90.0250,29.7,11111222 
LOOP,urn:ioos:station:wmo:lopl1:1,2019-08-10T10:10:00Z,28.8850,-90.0250,29.3,11111222 
LOOP,urn:ioos:station:wmo:lopl1:1,2019-08-10T11:10:00Z,28.8850,-90.0250,29.2,11111222 
LOOP,urn:ioos:station:wmo:lopl1:1,2019-08-10T12:15:00Z,28.8850,-90.0250,29.4,11111222 
LOOP,urn:ioos:station:wmo:lopl1:1,2019-08-10T13:15:00Z,28.8850,-90.0250,29.7,11111222 
LOOP,urn:ioos:station:wmo:lopl1:1,2019-08-10T14:15:00Z,28.8850,-90.0250,30.1,11111222 
LOOP,urn:ioos:station:wmo:lopl1:1,2019-08-10T15:15:00Z,28.8850,-90.0250,30.2,11111222 
LOOP,urn:ioos:station:wmo:lopl1:1,2019-08-10T16:15:00Z,28.8850,-90.0250,30.6,11111222 
LOOP,urn:ioos:station:wmo:lopl1:1,2019-08-10T17:25:00Z,28.8850,-90.0250,30.3,11111222 
LOOP,urn:ioos:station:wmo:lopl1:1,2019-08-10T17:45:00Z,28.8850,-90.0250,30.4,11111222 
LOOP,urn:ioos:station:wmo:lopl1:1,2019-08-10T18:15:00Z,28.8850,-90.0250,30.6,11111222 
LOOP,urn:ioos:station:wmo:lopl1:1,2019-08-10T19:15:00Z,28.8850,-90.0250,30.4,11111222 
LOOP,urn:ioos:station:wmo:lopl1:1,2019-08-10T20:56:00Z,28.8850,-90.0250,31.1,11111222 
LOOP,urn:ioos:station:wmo:lopl1:1,2019-08-10T21:56:00Z,28.8850,-90.0250,30.9,11111222 
LOOP,urn:ioos:station:wmo:lopl1:1,2019-08-10T22:56:00Z,28.8850,-90.0250,30.3,11111222 
LOOP,urn:ioos:station:wmo:lopl1:1,2019-08-10T23:56:00Z,28.8850,-90.0250,30.1,11111222 
LOOP,urn:ioos:station:wmo:lopl1:1,2019-08-11T00:56:00Z,28.8850,-90.0250,30.2,11111222 
LOOP,urn:ioos:station:wmo:lopl1:1,2019-08-11T01:56:00Z,28.8850,-90.0250,30.1,11111222 
LOOP,urn:ioos:station:wmo:lopl1:1,2019-08-11T02:56:00Z,28.8850,-90.0250,30.1,11111222 
LOOP,urn:ioos:station:wmo:lopl1:1,2019-08-11T03:56:00Z,28.8850,-90.0250,30.1,11111222 
LOOP,urn:ioos:station:wmo:lopl1:1,2019-08-11T04:56:00Z,28.8850,-90.0250,30.1,11111222 
LOOP,urn:ioos:station:wmo:lopl1:1,2019-08-11T05:56:00Z,28.8850,-90.0250,30.0,11111222 
LOOP,urn:ioos:station:wmo:lopl1:1,2019-08-11T06:56:00Z,28.8850,-90.0250,30.0,11111222 
LOOP,urn:ioos:station:wmo:lopl1:1,2019-08-11T07:56:00Z,28.8850,-90.0250,29.9,11111222 
LOOP,urn:ioos:station:wmo:lopl1:1,2019-08-11T09:01:00Z,28.8850,-90.0250,29.7,11111222 
LOOP,urn:ioos:station:wmo:lopl1:1,2019-08-11T10:01:00Z,28.8850,-90.0250,29.8,11111222 
LOOP,urn:ioos:station:wmo:lopl1:1,2019-08-11T11:01:00Z,28.8850,-90.0250,29.6,11111222 
LOOP,urn:ioos:station:wmo:lopl1:1,2019-08-11T12:01:00Z,28.8850,-90.0250,29.6,11111222 
LOOP,urn:ioos:station:wmo:lopl1:1,2019-08-11T13:01:00Z,28.8850,-90.0250,29.4,11111222 
LOOP,urn:ioos:station:wmo:lopl1:1,2019-08-11T14:16:00Z,28.8850,-90.0250,29.7,11111222 
LOOP,urn:ioos:station:wmo:lopl1:1,2019-08-11T15:16:00Z,28.8850,-90.0250,30.0,11111222 
LOOP,urn:ioos:station:wmo:lopl1:1,2019-08-11T16:16:00Z,28.8850,-90.0250,30.2,11111222 
LOOP,urn:ioos:station:wmo:lopl1:1,2019-08-11T17:16:00Z,28.8850,-90.0250,30.2,11111222 
LOOP,urn:ioos:station:wmo:lopl1:1,2019-08-11T18:16:00Z,28.8850,-90.0250,30.1,11111222 
LOOP,urn:ioos:station:wmo:lopl1:1,2019-08-11T19:16:00Z,28.8850,-90.0250,30.7,11111222 
LOOP,urn:ioos:station:wmo:lopl1:1,2019-08-11T20:16:00Z,28.8850,-90.0250,30.9,11111222 
LOOP,urn:ioos:station:wmo:lopl1:1,2019-08-11T21:21:00Z,28.8850,-90.0250,30.5,11111222 
LOOP,urn:ioos:station:wmo:lopl1:1,2019-08-11T22:21:00Z,28.8850,-90.0250,30.6,11111222 
LOOP,urn:ioos:station:wmo:lopl1:1,2019-08-11T23:21:00Z,28.8850,-90.0250,30.6,11111222 
LOOP,urn:ioos:station:wmo:lopl1:1,2019-08-12T00:21:00Z,28.8850,-90.0250,30.2,11111222 
LOOP,urn:ioos:station:wmo:lopl1:1,2019-08-12T01:21:00Z,28.8850,-90.0250,30.3,11111222 
LOOP,urn:ioos:station:wmo:lopl1:1,2019-08-12T02:21:00Z,28.8850,-90.0250,30.1,11111222 
LOOP,urn:ioos:station:wmo:lopl1:1,2019-08-12T03:21:00Z,28.8850,-90.0250,29.6,11111222 
LOOP,urn:ioos:station:wmo:lopl1:1,2019-08-12T04:21:00Z,28.8850,-90.0250,30.2,11111222 
LOOP,urn:ioos:station:wmo:lopl1:1,2019-08-12T05:21:00Z,28.8850,-90.0250,30.3,11111222 
LOOP,urn:ioos:station:wmo:lopl1:1,2019-08-12T06:21:00Z,28.8850,-90.0250,30.2,11111222 
LOOP,urn:ioos:station:wmo:lopl1:1,2019-08-12T07:21:00Z,28.8850,-90.0250,30.2,11111222 
LOOP,urn:ioos:station:wmo:lopl1:1,2019-08-12T08:21:00Z,28.8850,-90.0250,29.7,11111222 
LOOP,urn:ioos:station:wmo:lopl1:1,2019-08-12T09:26:00Z,28.8850,-90.0250,29.4,11111222 
LOOP,urn:ioos:station:wmo:lopl1:1,2019-08-12T10:26:00Z,28.8850,-90.0250,29.8,11111222 
LOOP,urn:ioos:station:wmo:lopl1:1,2019-08-12T11:26:00Z,28.8850,-90.0250,29.6,11111222 
LOOP,urn:ioos:station:wmo:lopl1:1,2019-08-12T12:26:00Z,28.8850,-90.0250,28.8,11111222 
LOOP,urn:ioos:station:wmo:lopl1:1,2019-08-12T13:26:00Z,28.8850,-90.0250,28.3,11111222 
LOOP,urn:ioos:station:wmo:lopl1:1,2019-08-12T14:26:00Z,28.8850,-90.0250,29.9,11111222 
LOOP,urn:ioos:station:wmo:lopl1:1,2019-08-12T15:26:00Z,28.8850,-90.0250,30.3,11111222 